�v������,,���ԉ��x,�����t���O,���Ԏ��x,�����t���O,���ʉ��x,�����t���O,�q�������x,�����t���O,�{�C���[�������g�[(2/6),�����t���O
2003/2/1,0:00:00,23.8,0,49.9,0,24.7,0,26.2,0,35,0
2003/2/1,0:10:00,23.6,0,50.1,0,24.7,0,25.9,0,34.5,0
2003/2/1,0:20:00,23.5,0,49.9,0,24.6,0,25.6,0,33.9,0
2003/2/1,0:30:00,23.4,0,50,0,24.5,0,25.4,0,33.3,0
2003/2/1,0:40:00,23.4,0,50.2,0,24.4,0,25.2,0,33.1,0
2003/2/1,0:50:00,23.7,0,50.1,0,24.4,0,25,0,33.2,0
2003/2/1,1:00:00,23.9,0,50,0,24.4,0,24.8,0,33.4,0
2003/2/1,1:10:00,23.7,0,49.5,0,24.4,0,24.7,0,33.9,0
2003/2/1,1:20:00,23.6,0,44.8,0,24.4,0,24.6,0,34,0
2003/2/1,1:30:00,23.5,0,49.5,0,24.4,0,24.5,0,33.6,0
2003/2/1,1:40:00,23.3,0,49.6,0,24.3,0,24.4,0,33.2,0
2003/2/1,1:50:00,23.2,0,50,0,24.3,0,24.3,0,32.7,0
2003/2/1,2:00:00,23.3,0,49.9,0,24.2,0,24.2,0,32.7,0
2003/2/1,2:10:00,23.6,0,49.9,0,24.2,0,24.1,0,33,0
2003/2/1,2:20:00,23.8,0,49.5,0,24.2,0,24,0,33.2,0
2003/2/1,2:30:00,23.9,0,49.4,0,24.2,0,24,0,33.3,0
2003/2/1,2:40:00,24.1,0,48.9,0,24.2,0,23.9,0,33.4,0
2003/2/1,2:50:00,23.8,0,49.4,0,24.2,0,23.8,0,34,0
2003/2/1,3:00:00,23.7,0,49.8,0,24.2,0,23.7,0,33.8,0
2003/2/1,3:10:00,23.5,0,49.8,0,24.2,0,23.7,0,33.4,0
2003/2/1,3:20:00,23.4,0,50.1,0,24.2,0,23.6,0,33,0
2003/2/1,3:30:00,23.3,0,50.1,0,24.2,0,23.5,0,32.5,0
2003/2/1,3:40:00,23.2,0,49.7,0,24.1,0,23.5,0,32.3,0
2003/2/1,3:50:00,23.5,0,49.6,0,24.1,0,23.4,0,32.7,0
2003/2/1,4:00:00,23.7,0,49.8,0,24.1,0,23.4,0,32.9,0
2003/2/1,4:10:00,23.9,0,49.6,0,24.1,0,23.3,0,33,0
2003/2/1,4:20:00,23.7,0,49.4,0,24.1,0,23.2,0,33.7,0
2003/2/1,4:30:00,23.6,0,49.7,0,24.1,0,23.2,0,33.8,0
2003/2/1,4:40:00,23.5,0,50.1,0,24.2,0,23.1,0,33.5,0
2003/2/1,4:50:00,23.4,0,50.2,0,24.1,0,23.1,0,33,0
2003/2/1,5:00:00,23.2,0,50.2,0,24.1,0,23,0,32.5,0
2003/2/1,5:10:00,23.1,0,49.1,0,24.1,0,23,0,32.1,0
2003/2/1,5:20:00,23.4,0,48.9,0,24,0,22.9,0,32.5,0
2003/2/1,5:30:00,23.6,0,49,0,24,0,22.9,0,32.8,0
2003/2/1,5:40:00,23.8,0,48.8,0,24,0,22.8,0,33,0
2003/2/1,5:50:00,23.9,0,48.6,0,24,0,22.8,0,33.1,0
2003/2/1,6:00:00,23.8,0,48.3,0,24.1,0,22.7,0,33.6,0
2003/2/1,6:10:00,23.6,0,48.6,0,24.1,0,22.7,0,33.8,0
2003/2/1,6:20:00,23.5,0,48.8,0,24.1,0,22.6,0,33.5,0
2003/2/1,6:30:00,23.4,0,49.2,0,24.1,0,22.5,0,33,0
2003/2/1,6:40:00,23.2,0,48.5,0,24,0,22.5,0,32.5,0
2003/2/1,6:50:00,23.3,0,49.2,0,24,0,22.4,0,32.4,0
2003/2/1,7:00:00,23.5,0,49.1,0,24,0,22.4,0,32.6,0
2003/2/1,7:10:00,23.7,0,49,0,23.9,0,22.3,0,32.8,0
2003/2/1,7:20:00,23.9,0,48.8,0,24,0,22.3,0,32.9,0
2003/2/1,7:30:00,24.1,0,49,0,24,0,22.3,0,33.1,0
2003/2/1,7:40:00,23.9,0,49.5,0,24,0,22.2,0,33.5,0
2003/2/1,7:50:00,23.8,0,49.9,0,24,0,22.2,0,52.3,0
2003/2/1,8:00:00,23.7,0,50,0,24,0,22.2,0,45.2,0
2003/2/1,8:10:00,23.9,0,49.8,0,24,0,22.1,0,44.8,0
2003/2/1,8:20:00,24.2,0,49.8,0,24,0,22.1,0,41.8,0
2003/2/1,8:30:00,24.4,0,50.2,0,24.1,0,22.1,0,39,0
2003/2/1,8:40:00,24.5,0,50.6,0,24.1,0,22.6,0,37.1,0
2003/2/1,8:50:00,24.7,0,51.1,0,24.1,0,23.1,0,35.7,0
2003/2/1,9:00:00,24.9,0,51,0,24.2,0,23.6,0,34.8,0
2003/2/1,9:10:00,25.1,0,50.4,0,24.2,0,24,0,34.2,0
2003/2/1,9:20:00,25,0,50,0,24.2,0,24.1,0,45.6,0
2003/2/1,9:30:00,24.9,0,51.1,0,24.3,0,24.2,0,53.7,0
2003/2/1,9:40:00,24.8,0,50.6,0,24.5,0,24.3,0,48.1,0
2003/2/1,9:50:00,24.7,0,49.3,0,25.1,0,24.4,0,44.9,0
2003/2/1,10:00:00,24.6,0,50.2,0,25.1,0,24.6,0,42,0
2003/2/1,10:10:00,24.6,0,50.2,0,25.1,0,24.6,0,40,0
2003/2/1,10:20:00,24.5,0,50.5,0,25,0,24.6,0,38.7,0
2003/2/1,10:30:00,24.5,0,50.6,0,24.9,0,24.7,0,37.7,0
2003/2/1,10:40:00,24.4,0,50.3,0,24.8,0,24.8,0,37,0
2003/2/1,10:50:00,24.3,0,50.1,0,24.8,0,25,0,36.6,0
2003/2/1,11:00:00,24.3,0,49.6,0,24.8,0,25.2,0,49.1,0
2003/2/1,11:10:00,24.2,0,50,0,24.8,0,25.2,0,43.2,0
2003/2/1,11:20:00,24.1,0,50,0,24.7,0,25.4,0,40.6,0
2003/2/1,11:30:00,24,0,49.9,0,24.7,0,25.6,0,39.1,0
2003/2/1,11:40:00,24,0,49.8,0,24.7,0,25.8,0,38,0
2003/2/1,11:50:00,23.9,0,50,0,24.6,0,25.8,0,37.1,0
2003/2/1,12:00:00,23.8,0,49.8,0,24.6,0,25.8,0,36.5,0
2003/2/1,12:10:00,23.8,0,49.5,0,24.6,0,26,0,37.9,0
2003/2/1,12:20:00,23.7,0,48.8,0,24.6,0,25.3,0,38.5,0
2003/2/1,12:30:00,23.9,0,48.5,0,24.5,0,25.4,0,42.7,0
2003/2/1,12:40:00,24.1,0,46.8,0,24.5,0,25.5,0,39.2,0
2003/2/1,12:50:00,24.3,0,45.9,0,24.5,0,25.6,0,39.6,0
2003/2/1,13:00:00,24.4,0,44.7,0,24.5,0,25.5,0,41.9,0
2003/2/1,13:10:00,24.4,0,45.7,0,24.5,0,25.6,0,34.6,0
2003/2/1,13:20:00,24.3,0,46.7,0,24.6,0,25.7,0,44.7,0
2003/2/1,13:30:00,24.2,0,46.8,0,24.6,0,25.9,0,38.7,0
2003/2/1,13:40:00,24.1,0,46.8,0,24.5,0,25.7,0,37.3,0
2003/2/1,13:50:00,24,0,46.9,0,24.5,0,25.3,0,36.1,0
2003/2/1,14:00:00,23.8,0,46.9,0,24.5,0,25,0,34.9,0
2003/2/1,14:10:00,23.7,0,47,0,24.4,0,24.9,0,34.4,0
2003/2/1,14:20:00,23.6,0,47,0,24.4,0,24.9,0,34.6,0
2003/2/1,14:30:00,23.5,0,47,0,24.3,0,24.7,0,34.4,0
2003/2/1,14:40:00,23.4,0,47,0,24.3,0,24.7,0,34.3,0
2003/2/1,14:50:00,23.3,0,47.3,0,24.3,0,24.6,0,34.6,0
2003/2/1,15:00:00,23.2,0,47.2,0,24.3,0,24.4,0,34.3,0
2003/2/1,15:10:00,23.1,0,47.2,0,24.3,0,24.5,0,34.4,0
2003/2/1,15:20:00,23.1,0,47.1,0,24.2,0,24.4,0,34.6,0
2003/2/1,15:30:00,23,0,47.1,0,24.2,0,24.3,0,34.2,0
2003/2/1,15:40:00,22.9,0,47,0,24.2,0,24.4,0,34.6,0
2003/2/1,15:50:00,22.8,0,47,0,24.2,0,24.2,0,34.4,0
2003/2/1,16:00:00,22.7,0,47.3,0,24.2,0,24.3,0,34.4,0
2003/2/1,16:10:00,22.7,0,47.5,0,24.2,0,24.2,0,34.6,0
2003/2/1,16:20:00,22.6,0,47.5,0,24.2,0,24.1,0,34.2,0
2003/2/1,16:30:00,22.5,0,47.7,0,24.1,0,24.1,0,34.6,0
2003/2/1,16:40:00,22.5,0,47.7,0,24.1,0,24,0,34.9,0
2003/2/1,16:50:00,23.2,0,44.1,0,24.1,0,24.1,0,47.8,0
2003/2/1,17:00:00,23.7,0,42.9,0,24.1,0,24,0,43.3,0
2003/2/1,17:10:00,24.1,0,40.6,0,24.1,0,24,0,39,0
2003/2/1,17:20:00,24.3,0,43.1,0,24.1,0,24.1,0,36.8,0
2003/2/1,17:30:00,24.4,0,44.6,0,24.1,0,24.1,0,43.8,0
2003/2/1,17:40:00,24.3,0,45.1,0,24.2,0,24.2,0,41.4,0
2003/2/1,17:50:00,24.2,0,45.3,0,24.2,0,24.1,0,39.5,0
2003/2/1,18:00:00,24.1,0,45.5,0,24.2,0,24,0,37.8,0
2003/2/1,18:10:00,24,0,45.2,0,24.2,0,24.2,0,37.1,0
2003/2/1,18:20:00,23.9,0,46.1,0,24.2,0,24.5,0,36.3,0
2003/2/1,18:30:00,23.8,0,46.5,0,24.3,0,24.8,0,35.8,0
2003/2/1,18:40:00,23.8,0,46.7,0,24.3,0,25.2,0,35.4,0
2003/2/1,18:50:00,23.7,0,46.9,0,24.3,0,25.5,0,35.2,0
2003/2/1,19:00:00,23.6,0,47.3,0,24.3,0,25.7,0,35,0
2003/2/1,19:10:00,23.6,0,47.4,0,24.3,0,25.9,0,35,0
2003/2/1,19:20:00,23.5,0,47.6,0,24.3,0,26,0,34.9,0
2003/2/1,19:30:00,23.5,0,47.8,0,24.3,0,26.1,0,34.9,0
2003/2/1,19:40:00,23.5,0,47.9,0,24.3,0,26.2,0,34.9,0
2003/2/1,19:50:00,23.4,0,47.9,0,24.3,0,26.2,0,34.9,0
2003/2/1,20:00:00,23.4,0,47.8,0,24.3,0,26.3,0,34.8,0
2003/2/1,20:10:00,23.3,0,47.9,0,24.3,0,26.5,0,34.8,0
2003/2/1,20:20:00,23.3,0,47.9,0,24.3,0,26.7,0,34.8,0
2003/2/1,20:30:00,23.3,0,48.2,0,24.3,0,26.7,0,34.8,0
2003/2/1,20:40:00,23.3,0,48.3,0,24.3,0,26.7,0,49.8,0
2003/2/1,20:50:00,23.3,0,48.7,0,24.3,0,26.8,0,45.1,0
2003/2/1,21:00:00,23.3,0,48.6,0,24.4,0,26.9,0,42.5,0
2003/2/1,21:10:00,23.2,0,48.4,0,24.4,0,26.6,0,40.3,0
2003/2/1,21:20:00,23.2,0,48.1,0,24.4,0,26.2,0,35,0
2003/2/1,21:30:00,23.3,0,47.7,0,24.3,0,26.3,0,33.4,0
2003/2/1,21:40:00,23.7,0,46.4,0,24.3,0,26.1,0,33.2,0
2003/2/1,21:50:00,23.6,0,45.8,0,24.3,0,26,0,47.9,0
2003/2/1,22:00:00,23.6,0,46.6,0,24.3,0,26.1,0,46.1,0
2003/2/1,22:10:00,23.6,0,47.6,0,24.4,0,26.1,0,42.7,0
2003/2/1,22:20:00,23.6,0,47.5,0,24.4,0,26,0,40.6,0
2003/2/1,22:30:00,23.6,0,48.8,0,24.5,0,26.1,0,42.1,0
2003/2/1,22:40:00,23.6,0,48.4,0,24.5,0,26.3,0,44.3,0
2003/2/1,22:50:00,23.6,0,48.5,0,24.6,0,26.3,0,41.2,0
2003/2/1,23:00:00,23.5,0,48.6,0,24.6,0,26.3,0,39.4,0
2003/2/1,23:10:00,23.5,0,48.8,0,24.6,0,26.3,0,38.4,0
2003/2/1,23:20:00,23.5,0,48.8,0,24.6,0,26.5,0,37.6,0
2003/2/1,23:30:00,23.4,0,48.9,0,24.6,0,26.6,0,36.9,0
2003/2/1,23:40:00,23.4,0,49,0,24.6,0,26.6,0,36.4,0
2003/2/1,23:50:00,23.4,0,49.1,0,24.6,0,26.5,0,36.1,0
2003/2/2,0:00:00,23.3,0,48.8,0,24.6,0,26.6,0,36,0
2003/2/2,0:10:00,23.3,0,48.5,0,24.6,0,26.7,0,35.9,0
2003/2/2,0:20:00,23.2,0,48.9,0,24.6,0,26.8,0,35.7,0
2003/2/2,0:30:00,23.2,0,49.1,0,24.6,0,26.7,0,35.5,0
2003/2/2,0:40:00,23.1,0,49.2,0,24.5,0,26.5,0,35.8,0
2003/2/2,0:50:00,23.1,0,49.5,0,24.5,0,26.2,0,35.3,0
2003/2/2,1:00:00,23,0,49.8,0,24.5,0,25.9,0,34.7,0
2003/2/2,1:10:00,22.9,0,50,0,24.5,0,25.6,0,34,0
2003/2/2,1:20:00,22.9,0,50.3,0,24.4,0,25.3,0,33.4,0
2003/2/2,1:30:00,23.3,0,50.3,0,24.3,0,25.1,0,33.6,0
2003/2/2,1:40:00,23.6,0,50.3,0,24.3,0,24.9,0,33.6,0
2003/2/2,1:50:00,23.8,0,50.1,0,24.3,0,24.8,0,33.6,0
2003/2/2,2:00:00,24.1,0,49.9,0,24.3,0,24.6,0,33.7,0
2003/2/2,2:10:00,24.2,0,49.8,0,24.3,0,24.5,0,33.7,0
2003/2/2,2:20:00,24.1,0,49.4,0,24.3,0,24.4,0,34,0
2003/2/2,2:30:00,24,0,50.1,0,24.4,0,24.3,0,34.4,0
2003/2/2,2:40:00,23.8,0,50.3,0,24.4,0,24.2,0,34.1,0
2003/2/2,2:50:00,23.7,0,50.5,0,24.4,0,24.1,0,33.6,0
2003/2/2,3:00:00,23.6,0,50.8,0,24.3,0,24,0,33,0
2003/2/2,3:10:00,23.6,0,50.9,0,24.3,0,23.9,0,32.5,0
2003/2/2,3:20:00,23.5,0,50.6,0,24.2,0,23.8,0,32,0
2003/2/2,3:30:00,23.4,0,50.9,0,24.2,0,23.7,0,31.4,0
2003/2/2,3:40:00,23.6,0,51.1,0,24.1,0,23.6,0,31.8,0
2003/2/2,3:50:00,23.9,0,50.8,0,24.1,0,23.5,0,32.3,0
2003/2/2,4:00:00,24.1,0,50.6,0,24.1,0,23.4,0,32.7,0
2003/2/2,4:10:00,24.3,0,50.5,0,24.1,0,23.4,0,33,0
2003/2/2,4:20:00,24.5,0,50.3,0,24.2,0,23.3,0,33.2,0
2003/2/2,4:30:00,24.2,0,50.2,0,24.2,0,23.2,0,33.4,0
2003/2/2,4:40:00,24,0,50.7,0,24.2,0,23.2,0,33.2,0
2003/2/2,4:50:00,23.9,0,51,0,24.2,0,23.1,0,32.8,0
2003/2/2,5:00:00,23.8,0,51.1,0,24.2,0,23,0,32.3,0
2003/2/2,5:10:00,23.7,0,51.1,0,24.1,0,23,0,31.7,0
2003/2/2,5:20:00,23.6,0,51.3,0,24.1,0,22.9,0,31.2,0
2003/2/2,5:30:00,23.5,0,51.3,0,24,0,22.8,0,30.7,0
2003/2/2,5:40:00,23.6,0,51.5,0,24,0,22.8,0,31.1,0
2003/2/2,5:50:00,24,0,51,0,23.9,0,22.7,0,31.8,0
2003/2/2,6:00:00,24.2,0,50.8,0,23.9,0,22.7,0,32.2,0
2003/2/2,6:10:00,24.4,0,50.7,0,24,0,22.6,0,32.5,0
2003/2/2,6:20:00,24.4,0,50.3,0,24,0,22.6,0,32.8,0
2003/2/2,6:30:00,24.1,0,50.5,0,24,0,22.5,0,33.5,0
2003/2/2,6:40:00,24,0,50.8,0,24.1,0,22.4,0,33.4,0
2003/2/2,6:50:00,23.9,0,51.1,0,24.1,0,22.4,0,33,0
2003/2/2,7:00:00,23.8,0,51.4,0,24.1,0,22.3,0,32.6,0
2003/2/2,7:10:00,23.7,0,51.5,0,24,0,22.3,0,32.1,0
2003/2/2,7:20:00,23.6,0,51.6,0,24,0,22.2,0,31.5,0
2003/2/2,7:30:00,23.5,0,51.7,0,24,0,22.2,0,31,0
2003/2/2,7:40:00,23.6,0,51.8,0,23.9,0,22.1,0,31.3,0
2003/2/2,7:50:00,24,0,51.5,0,23.9,0,22.1,0,31.8,0
2003/2/2,8:00:00,24.2,0,51.3,0,23.9,0,22,0,32.2,0
2003/2/2,8:10:00,24.4,0,51.1,0,23.9,0,22,0,32.5,0
2003/2/2,8:20:00,24.4,0,50.6,0,24,0,21.9,0,49.8,0
2003/2/2,8:30:00,24.1,0,51,0,24,0,21.9,0,47.4,0
2003/2/2,8:40:00,24,0,51.3,0,24,0,21.8,0,42.9,0
2003/2/2,8:50:00,23.9,0,51.2,0,24.1,0,21.8,0,39.9,0
2003/2/2,9:00:00,23.9,0,52.4,0,24.1,0,22.2,0,43.3,0
2003/2/2,9:10:00,23.9,0,53.3,0,24.1,0,22.9,0,40.1,0
2003/2/2,9:20:00,24,0,52.9,0,24.2,0,23.4,0,38.4,0
2003/2/2,9:30:00,24,0,53.1,0,24.2,0,23.7,0,37.2,0
2003/2/2,9:40:00,24,0,53.6,0,24.3,0,23.9,0,46,0
2003/2/2,9:50:00,24,0,54,0,24.3,0,24,0,48.5,0
2003/2/2,10:00:00,24.1,0,54.3,0,24.3,0,24.1,0,44,0
2003/2/2,10:10:00,24.1,0,54.5,0,24.4,0,24.1,0,40.8,0
2003/2/2,10:20:00,24.1,0,54.8,0,24.4,0,24.2,0,39,0
2003/2/2,10:30:00,24.1,0,54.6,0,24.4,0,24.2,0,37.8,0
2003/2/2,10:40:00,24.1,0,54.7,0,24.5,0,24.3,0,37,0
2003/2/2,10:50:00,24.1,0,54.3,0,24.5,0,24.4,0,43.6,0
2003/2/2,11:00:00,24.1,0,54.3,0,25,0,24.5,0,40.9,0
2003/2/2,11:10:00,24.1,0,54.2,0,25,0,24.7,0,38.6,0
2003/2/2,11:20:00,24.1,0,54.1,0,24.9,0,24.8,0,37.5,0
2003/2/2,11:30:00,24.1,0,53.9,0,24.8,0,24.8,0,37.6,0
2003/2/2,11:40:00,24.1,0,53.9,0,24.8,0,24.8,0,36.2,0
2003/2/2,11:50:00,24.1,0,54.2,0,24.7,0,25,0,35.7,0
2003/2/2,12:00:00,24.1,0,54.3,0,24.7,0,25.1,0,35.4,0
2003/2/2,12:10:00,24.1,0,53.8,0,24.6,0,25.1,0,35.2,0
2003/2/2,12:20:00,24.1,0,54.1,0,24.6,0,25.1,0,45.9,0
2003/2/2,12:30:00,24.1,0,54,0,24.6,0,25.2,0,44.4,0
2003/2/2,12:40:00,24.2,0,55.6,0,24.6,0,25.4,0,36,0
2003/2/2,12:50:00,24.2,0,56.3,0,24.6,0,25.5,0,35.4,0
2003/2/2,13:00:00,24.3,0,56,0,24.6,0,25.4,0,44.4,0
2003/2/2,13:10:00,24.3,0,57.1,0,24.6,0,25.3,0,43.4,0
2003/2/2,13:20:00,24.6,0,55.7,0,24.7,0,25.3,0,39.9,0
2003/2/2,13:30:00,24.7,0,51.1,0,24.7,0,25.4,0,34.9,0
2003/2/2,13:40:00,24.9,0,49.5,0,24.7,0,25.4,0,34.2,0
2003/2/2,13:50:00,24.9,0,49.2,0,24.6,0,25.3,0,34.7,0
2003/2/2,14:00:00,25.2,0,48,0,24.6,0,25.5,0,33.8,0
2003/2/2,14:10:00,25.3,0,46.2,0,24.5,0,25.7,0,48.2,0
2003/2/2,14:20:00,25.4,0,44.9,0,24.5,0,25.6,0,47,0
2003/2/2,14:30:00,25.5,0,44.1,0,24.5,0,25.7,0,41.7,0
2003/2/2,14:40:00,25.7,0,43.5,0,24.5,0,25.9,0,38.7,0
2003/2/2,14:50:00,25.7,0,42.8,0,24.5,0,26,0,36.9,0
2003/2/2,15:00:00,25.8,0,41.5,0,24.5,0,25.9,0,35.7,0
2003/2/2,15:10:00,25.9,0,40.4,0,24.5,0,26,0,34.8,0
2003/2/2,15:20:00,25.9,0,40.1,0,24.4,0,26.1,0,34.2,0
2003/2/2,15:30:00,26,0,40,0,24.4,0,26,0,33.8,0
2003/2/2,15:40:00,26.1,0,39.3,0,24.4,0,26.1,0,33.5,0
2003/2/2,15:50:00,26.1,0,39.3,0,24.4,0,26.2,0,33.2,0
2003/2/2,16:00:00,26.2,0,39,0,24.4,0,26.1,0,50.3,0
2003/2/2,16:10:00,26.2,0,38.7,0,24.5,0,26.1,0,44.2,0
2003/2/2,16:20:00,26.2,0,37.7,0,24.4,0,26.1,0,37.1,0
2003/2/2,16:30:00,26.2,0,37.4,0,24.4,0,26,0,34.6,0
2003/2/2,16:40:00,26.2,0,37.1,0,24.4,0,25.9,0,35.9,0
2003/2/2,16:50:00,26.3,0,37.4,0,24.4,0,26,0,35.5,0
2003/2/2,17:00:00,26.4,0,36.7,0,24.4,0,26,0,45.8,0
2003/2/2,17:10:00,26.4,0,37.1,0,24.4,0,25.9,0,41,0
2003/2/2,17:20:00,26.5,0,36.8,0,24.4,0,26,0,38.1,0
2003/2/2,17:30:00,26.5,0,36.5,0,24.4,0,26.1,0,46.3,0
2003/2/2,17:40:00,26.5,0,36.1,0,24.4,0,26,0,49.3,0
2003/2/2,17:50:00,26.3,0,37.1,0,24.5,0,26,0,44.8,0
2003/2/2,18:00:00,26.1,0,38.4,0,24.6,0,26.2,0,42,0
2003/2/2,18:10:00,25.9,0,39.1,0,24.6,0,26.3,0,40,0
2003/2/2,18:20:00,25.8,0,39.8,0,24.7,0,26.2,0,38.8,0
2003/2/2,18:30:00,25.7,0,40.7,0,24.8,0,26.4,0,38,0
2003/2/2,18:40:00,25.5,0,40.5,0,24.8,0,26.5,0,37.2,0
2003/2/2,18:50:00,25.5,0,41.5,0,24.8,0,26.3,0,36.6,0
2003/2/2,19:00:00,25.4,0,42,0,24.9,0,26.4,0,36.8,0
2003/2/2,19:10:00,25.4,0,43,0,24.9,0,26.4,0,38.7,0
2003/2/2,19:20:00,25.7,0,41.8,0,24.9,0,26.3,0,38.1,0
2003/2/2,19:30:00,26,0,40.6,0,24.9,0,26.3,0,36.5,0
2003/2/2,19:40:00,26.2,0,40.1,0,24.8,0,26.4,0,35.2,0
2003/2/2,19:50:00,26.3,0,39.4,0,24.8,0,26.2,0,44.8,0
2003/2/2,20:00:00,26.5,0,39,0,24.8,0,26.2,0,40.6,0
2003/2/2,20:10:00,26.4,0,39.4,0,24.9,0,26.4,0,38.3,0
2003/2/2,20:20:00,26.2,0,40.3,0,24.9,0,26.3,0,37.4,0
2003/2/2,20:30:00,26,0,41.3,0,25,0,26.3,0,36.7,0
2003/2/2,20:40:00,25.9,0,41.9,0,25.1,0,26.5,0,53,0
2003/2/2,20:50:00,25.8,0,42.2,0,25.4,0,26.5,0,50.8,0
2003/2/2,21:00:00,25.6,0,42.5,0,25.7,0,26.4,0,42.9,0
2003/2/2,21:10:00,25.5,0,43.2,0,25.9,0,26.5,0,41,0
2003/2/2,21:20:00,25.5,0,43.6,0,26.2,0,26.5,0,45.2,0
2003/2/2,21:30:00,25.4,0,44,0,26.3,0,26.4,0,49.6,0
2003/2/2,21:40:00,25.4,0,44.1,0,26.5,0,26.4,0,46.7,0
2003/2/2,21:50:00,25.3,0,44.4,0,26.6,0,26.4,0,48.2,0
2003/2/2,22:00:00,25.2,0,44.8,0,26.9,0,26.3,0,43.9,0
2003/2/2,22:10:00,25.2,0,45,0,27.1,0,26.3,0,42,0
2003/2/2,22:20:00,25.2,0,45.3,0,27.1,0,26.4,0,40.5,0
2003/2/2,22:30:00,25.1,0,45.4,0,27.2,0,26.5,0,39.4,0
2003/2/2,22:40:00,25,0,45.4,0,27.2,0,26.5,0,38.7,0
2003/2/2,22:50:00,25,0,45.2,0,27.3,0,26.5,0,34.1,0
2003/2/2,23:00:00,24.9,0,46,0,27.3,0,26.6,0,34.4,0
2003/2/2,23:10:00,24.9,0,46.6,0,27.3,0,26.7,0,35,0
2003/2/2,23:20:00,24.8,0,46,0,27.2,0,26.7,0,35.4,0
2003/2/2,23:30:00,24.8,0,46.7,0,27.1,0,26.7,0,35.7,0
2003/2/2,23:40:00,24.7,0,46.8,0,27.1,0,26.8,0,36,0
2003/2/2,23:50:00,24.7,0,47,0,27,0,26.9,0,36.2,0
2003/2/3,0:00:00,24.6,0,47,0,27,0,26.9,0,36.2,0
2003/2/3,0:10:00,24.5,0,47.1,0,26.9,0,26.7,0,36.5,0
2003/2/3,0:20:00,24.4,0,47.2,0,26.8,0,26.3,0,36.2,0
2003/2/3,0:30:00,24.4,0,47.4,0,26.8,0,26.1,0,35.7,0
2003/2/3,0:40:00,24.3,0,47.5,0,26.7,0,25.8,0,35,0
2003/2/3,0:50:00,24.2,0,47.7,0,26.5,0,25.5,0,34.4,0
2003/2/3,1:00:00,24.2,0,47.7,0,26.4,0,25.4,0,33.9,0
2003/2/3,1:10:00,24.1,0,48.1,0,26.3,0,25.2,0,33.4,0
2003/2/3,1:20:00,24,0,48.3,0,26.1,0,25,0,32.8,0
2003/2/3,1:30:00,24,0,48.3,0,26,0,24.9,0,32.4,0
2003/2/3,1:40:00,23.9,0,48.4,0,25.9,0,24.8,0,31.9,0
2003/2/3,1:50:00,24.2,0,48.5,0,25.8,0,24.7,0,32.8,0
2003/2/3,2:00:00,24.4,0,48,0,25.7,0,24.6,0,33.3,0
2003/2/3,2:10:00,24.2,0,48.6,0,25.7,0,24.5,0,33.9,0
2003/2/3,2:20:00,24.1,0,48.8,0,25.7,0,24.4,0,33.9,0
2003/2/3,2:30:00,24,0,48.8,0,25.7,0,24.3,0,33.6,0
2003/2/3,2:40:00,24,0,49.1,0,25.6,0,24.2,0,33.2,0
2003/2/3,2:50:00,23.9,0,49.1,0,25.6,0,24.1,0,32.8,0
2003/2/3,3:00:00,23.8,0,49.1,0,25.5,0,24,0,32.4,0
2003/2/3,3:10:00,23.8,0,49,0,25.4,0,23.9,0,32,0
2003/2/3,3:20:00,23.7,0,49.1,0,25.4,0,23.9,0,31.5,0
2003/2/3,3:30:00,24,0,49.2,0,25.3,0,23.8,0,32.5,0
2003/2/3,3:40:00,24.3,0,48.8,0,25.3,0,23.7,0,33,0
2003/2/3,3:50:00,24.1,0,49.2,0,25.3,0,23.6,0,33.2,0
2003/2/3,4:00:00,24,0,49.4,0,25.3,0,23.5,0,33.1,0
2003/2/3,4:10:00,23.9,0,49.3,0,25.3,0,23.5,0,32.8,0
2003/2/3,4:20:00,23.8,0,49.5,0,25.2,0,23.4,0,32.5,0
2003/2/3,4:30:00,23.7,0,49.6,0,25.2,0,23.3,0,32.1,0
2003/2/3,4:40:00,23.6,0,49.6,0,25.1,0,23.3,0,31.6,0
2003/2/3,4:50:00,23.6,0,49.5,0,25,0,23.2,0,31.2,0
2003/2/3,5:00:00,23.9,0,49.7,0,25,0,23.2,0,32.1,0
2003/2/3,5:10:00,24.1,0,49.4,0,25,0,23.1,0,32.7,0
2003/2/3,5:20:00,24,0,49.6,0,25,0,23,0,33.2,0
2003/2/3,5:30:00,23.9,0,49.7,0,25,0,22.9,0,33.3,0
2003/2/3,5:40:00,23.8,0,50.2,0,25.1,0,22.9,0,33.1,0
2003/2/3,5:50:00,23.7,0,50.1,0,25,0,22.9,0,32.7,0
2003/2/3,6:00:00,23.6,0,50.1,0,25,0,22.8,0,32.3,0
2003/2/3,6:10:00,23.6,0,50,0,25,0,22.8,0,31.9,0
2003/2/3,6:20:00,23.5,0,50.2,0,24.9,0,22.7,0,31.4,0
2003/2/3,6:30:00,24,0,50,0,24.9,0,22.7,0,32.2,0
2003/2/3,6:40:00,24.4,0,49.6,0,24.9,0,22.6,0,32.6,0
2003/2/3,6:50:00,24.1,0,49.5,0,24.9,0,22.6,0,32.9,0
2003/2/3,7:00:00,24,0,49.5,0,24.9,0,22.5,0,32.8,0
2003/2/3,7:10:00,23.9,0,49.5,0,24.9,0,22.5,0,32.5,0
2003/2/3,7:20:00,23.8,0,49.6,0,24.8,0,22.4,0,32.1,0
2003/2/3,7:30:00,23.7,0,49.7,0,24.8,0,22.4,0,31.7,0
2003/2/3,7:40:00,23.7,0,49.8,0,24.7,0,22.3,0,31.3,0
2003/2/3,7:50:00,23.6,0,49.9,0,24.7,0,22.3,0,32.3,0
2003/2/3,8:00:00,23.7,0,49.9,0,24.6,0,22.2,0,51.8,0
2003/2/3,8:10:00,24.1,0,49.6,0,24.7,0,22.2,0,45.2,0
2003/2/3,8:20:00,24.3,0,50,0,25.5,0,22.7,0,47,0
2003/2/3,8:30:00,24.6,0,50.3,0,25.7,0,23.2,0,39.6,0
2003/2/3,8:40:00,24.8,0,51.1,0,25.7,0,23.7,0,42.7,0
2003/2/3,8:50:00,24.6,0,50.3,0,25.6,0,23.9,0,29.8,0
2003/2/3,9:00:00,24.6,0,50.9,0,25.6,0,24.1,0,30.5,0
2003/2/3,9:10:00,24.5,0,51.2,0,25.6,0,24.2,0,32,0
2003/2/3,9:20:00,24.5,0,51.1,0,25.5,0,24.3,0,46.2,0
2003/2/3,9:30:00,24.5,0,51.2,0,25.5,0,24.4,0,43.1,0
2003/2/3,9:40:00,24.5,0,51.6,0,25.5,0,24.5,0,39.9,0
2003/2/3,9:50:00,24.5,0,51.3,0,25.5,0,24.5,0,38.3,0
2003/2/3,10:00:00,24.5,0,51.6,0,25.6,0,24.5,0,37.4,0
2003/2/3,10:10:00,24.5,0,50.8,0,25.7,0,24.5,0,36.9,0
2003/2/3,10:20:00,24.5,0,51.2,0,25.7,0,24.6,0,36.6,0
2003/2/3,10:30:00,24.4,0,50.7,0,25.6,0,24.8,0,36.3,0
2003/2/3,10:40:00,24.4,0,50.6,0,25.5,0,25,0,36.2,0
2003/2/3,10:50:00,24.4,0,50.6,0,25.4,0,25,0,35.9,0
2003/2/3,11:00:00,24.4,0,50.8,0,25.3,0,25,0,35.7,0
2003/2/3,11:10:00,24.3,0,50.7,0,25.3,0,25.2,0,35.7,0
2003/2/3,11:20:00,24.3,0,50.8,0,25.2,0,25.3,0,35.8,0
2003/2/3,11:30:00,24.3,0,50.8,0,25.1,0,25.5,0,35.7,0
2003/2/3,11:40:00,24.2,0,50.7,0,25.1,0,25.5,0,35.6,0
2003/2/3,11:50:00,24.2,0,50.8,0,25.1,0,25.6,0,35.5,0
2003/2/3,12:00:00,24.2,0,50.8,0,25,0,25.6,0,35.5,0
2003/2/3,12:10:00,24.2,0,50.2,0,25,0,25.8,0,35.7,0
2003/2/3,12:20:00,24.1,0,50.7,0,25,0,25.8,0,35.7,0
2003/2/3,12:30:00,24.1,0,49.6,0,24.9,0,25.7,0,38.6,0
2003/2/3,12:40:00,24,0,50.4,0,24.9,0,25.6,0,37.4,0
2003/2/3,12:50:00,24,0,50.6,0,24.9,0,25.6,0,36.8,0
2003/2/3,13:00:00,24,0,50.8,0,24.8,0,25.6,0,36.5,0
2003/2/3,13:10:00,24,0,50.9,0,24.8,0,25.6,0,46.3,0
2003/2/3,13:20:00,24,0,51.8,0,24.8,0,25.6,0,42.8,0
2003/2/3,13:30:00,24,0,52,0,24.9,0,25.5,0,40.6,0
2003/2/3,13:40:00,24,0,52.3,0,24.9,0,25.5,0,39.4,0
2003/2/3,13:50:00,24,0,52.4,0,24.9,0,25.6,0,38.4,0
2003/2/3,14:00:00,24,0,52,0,24.9,0,25.6,0,37.6,0
2003/2/3,14:10:00,24,0,51.8,0,24.9,0,25.6,0,36.9,0
2003/2/3,14:20:00,23.9,0,51.8,0,24.9,0,25.7,0,36.8,0
2003/2/3,14:30:00,23.9,0,51.8,0,24.9,0,25.9,0,36.5,0
2003/2/3,14:40:00,23.9,0,51.6,0,24.9,0,26,0,36.2,0
2003/2/3,14:50:00,23.9,0,51.7,0,24.9,0,26,0,35.9,0
2003/2/3,15:00:00,23.8,0,51.2,0,24.8,0,26.1,0,36,0
2003/2/3,15:10:00,23.7,0,51.3,0,24.8,0,26.2,0,35.9,0
2003/2/3,15:20:00,23.7,0,51.3,0,24.8,0,26.2,0,35.7,0
2003/2/3,15:30:00,23.7,0,51.4,0,24.8,0,26.2,0,35.6,0
2003/2/3,15:40:00,23.6,0,51.4,0,24.8,0,26.3,0,35.7,0
2003/2/3,15:50:00,23.6,0,51.5,0,24.8,0,26.4,0,35.6,0
2003/2/3,16:00:00,23.6,0,51.6,0,24.8,0,26.3,0,37.8,0
2003/2/3,16:10:00,23.6,0,51.7,0,24.8,0,26.3,0,49.4,0
2003/2/3,16:20:00,23.6,0,51.6,0,24.8,0,26.4,0,44.6,0
2003/2/3,16:30:00,23.5,0,51.4,0,24.8,0,26.4,0,41.8,0
2003/2/3,16:40:00,23.5,0,51.5,0,24.8,0,26.3,0,40,0
2003/2/3,16:50:00,23.5,0,51.3,0,24.8,0,26.4,0,39,0
2003/2/3,17:00:00,23.5,0,51.3,0,24.9,0,26.5,0,38,0
2003/2/3,17:10:00,23.5,0,51.7,0,24.9,0,26.5,0,37.2,0
2003/2/3,17:20:00,23.5,0,51.3,0,25,0,26.4,0,36.7,0
2003/2/3,17:30:00,23.5,0,51.3,0,25,0,26.5,0,36.5,0
2003/2/3,17:40:00,23.5,0,51.6,0,25.1,0,26.6,0,37.7,0
2003/2/3,17:50:00,23.4,0,51.7,0,25.1,0,26.4,0,36.8,0
2003/2/3,18:00:00,23.4,0,51.5,0,25.1,0,26.5,0,36.4,0
2003/2/3,18:10:00,23.4,0,50.8,0,25,0,26.6,0,35.3,0
2003/2/3,18:20:00,23.8,0,50.9,0,25.1,0,26.5,0,34.1,0
2003/2/3,18:30:00,24.1,0,50.2,0,25.1,0,26.5,0,33.4,0
2003/2/3,18:40:00,24.3,0,49.7,0,25.3,0,26.2,0,32.9,0
2003/2/3,18:50:00,24.3,0,49.4,0,25.4,0,25.9,0,34.6,0
2003/2/3,19:00:00,24.2,0,49.8,0,25.6,0,25.6,0,33.2,0
2003/2/3,19:10:00,24.1,0,49.9,0,25.8,0,25.6,0,32.2,0
2003/2/3,19:20:00,24.1,0,49.6,0,26,0,25.3,0,30.9,0
2003/2/3,19:30:00,24,0,49.4,0,26.2,0,25.2,0,31.1,0
2003/2/3,19:40:00,23.9,0,49.2,0,26.3,0,25.1,0,31.4,0
2003/2/3,19:50:00,23.9,0,48.9,0,26.5,0,24.9,0,31.7,0
2003/2/3,20:00:00,23.9,0,48.8,0,26.7,0,24.9,0,32.1,0
2003/2/3,20:10:00,24.4,0,48.9,0,26.8,0,24.7,0,32.4,0
2003/2/3,20:20:00,24.6,0,48.9,0,26.8,0,24.8,0,32.9,0
2003/2/3,20:30:00,24.8,0,48.9,0,26.9,0,24.7,0,34.4,0
2003/2/3,20:40:00,25,0,49.1,0,26.9,0,24.7,0,35.3,0
2003/2/3,20:50:00,24.9,0,49.1,0,26.8,0,24.7,0,35.7,0
2003/2/3,21:00:00,24.7,0,49.3,0,26.8,0,24.5,0,35.5,0
2003/2/3,21:10:00,24.7,0,49.3,0,26.8,0,24.6,0,35.8,0
2003/2/3,21:20:00,24.6,0,49.5,0,26.8,0,24.5,0,35.8,0
2003/2/3,21:30:00,24.5,0,49.5,0,26.8,0,24.6,0,35.9,0
2003/2/3,21:40:00,24.4,0,49.6,0,26.8,0,24.4,0,36,0
2003/2/3,21:50:00,24.4,0,49.7,0,26.7,0,24.5,0,35.9,0
2003/2/3,22:00:00,24.4,0,49.9,0,26.7,0,24.5,0,36.1,0
2003/2/3,22:10:00,24.3,0,49.6,0,26.6,0,24.4,0,35.8,0
2003/2/3,22:20:00,24.3,0,49.7,0,26.6,0,24.9,0,35.7,0
2003/2/3,22:30:00,24.3,0,50,0,26.5,0,25.5,0,35.7,0
2003/2/3,22:40:00,24.3,0,50.1,0,26.5,0,26,0,35.7,0
2003/2/3,22:50:00,24.2,0,50,0,26.4,0,26.3,0,35.6,0
2003/2/3,23:00:00,24.2,0,50.2,0,26.4,0,26.7,0,35.7,0
2003/2/3,23:10:00,24.2,0,50.2,0,26.4,0,27,0,35.7,0
2003/2/3,23:20:00,24.2,0,50.6,0,26.3,0,27.2,0,35.6,0
2003/2/3,23:30:00,24.1,0,50.5,0,26.3,0,27.4,0,35.6,0
2003/2/3,23:40:00,24.1,0,50.6,0,26.2,0,27.6,0,35.7,0
2003/2/3,23:50:00,24.1,0,50.6,0,26.3,0,27.7,0,44.4,0
2003/2/4,0:00:00,24.1,0,50.8,0,26.5,0,27.9,0,44.5,0
2003/2/4,0:10:00,24,0,50.9,0,26.4,0,27.8,0,41.7,0
2003/2/4,0:20:00,23.9,0,50.9,0,26.4,0,27.3,0,40.2,0
2003/2/4,0:30:00,23.8,0,50.9,0,26.2,0,26.8,0,38.8,0
2003/2/4,0:40:00,23.8,0,51.1,0,26.1,0,26.4,0,37.6,0
2003/2/4,0:50:00,23.7,0,51.2,0,26,0,26.1,0,36.4,0
2003/2/4,1:00:00,23.7,0,51.1,0,25.9,0,25.7,0,35.4,0
2003/2/4,1:10:00,24,0,51.3,0,25.8,0,25.5,0,35.2,0
2003/2/4,1:20:00,24.3,0,51.1,0,25.7,0,25.2,0,34.9,0
2003/2/4,1:30:00,24.5,0,50.9,0,25.6,0,25,0,34.8,0
2003/2/4,1:40:00,24.2,0,50.9,0,25.6,0,24.9,0,35.2,0
2003/2/4,1:50:00,24.1,0,51.1,0,25.6,0,24.7,0,35,0
2003/2/4,2:00:00,24.1,0,51.1,0,25.6,0,24.6,0,34.6,0
2003/2/4,2:10:00,24,0,51.3,0,25.5,0,24.5,0,34.1,0
2003/2/4,2:20:00,23.9,0,51.3,0,25.4,0,24.4,0,33.6,0
2003/2/4,2:30:00,23.8,0,51.5,0,25.3,0,24.2,0,33,0
2003/2/4,2:40:00,23.8,0,51.5,0,25.2,0,24.1,0,32.9,0
2003/2/4,2:50:00,24.2,0,51.4,0,25.2,0,24,0,33.2,0
2003/2/4,3:00:00,24.4,0,51.4,0,25.2,0,23.9,0,33.5,0
2003/2/4,3:10:00,24.3,0,51.1,0,25.2,0,23.8,0,33.9,0
2003/2/4,3:20:00,24.2,0,51.5,0,25.2,0,23.7,0,33.8,0
2003/2/4,3:30:00,24.1,0,51.7,0,25.2,0,23.7,0,33.5,0